Flag for China Weather past 2 weeks in Shenzhen, Guangdong, China

Now
82 °F

Passing clouds.


Feels Like: 91 °F
Forecast: 78 / 89 °F
Wind: 8 mph from South

Location: Shenzhen Airport

Current Time: Jul 29, 2015 at 2:46:02 AM

Latest Report: Jul 29, 2015 at 2:00 AM


Visibility: N/A

Pressure: 29.86 "Hg

Humidity: 84%

Dew point: 77 °F

Location of ShenzhenLocation

Historic Weather in Shenzhen — Graph

°F

Shenzhen temperature yesterday

Maximum temperature yesterday: 88 °F (at 12:00 PM)
Minimum temperature yesterday: 81 °F (at 2:00 AM)
Average temperature yesterday: 84 °F

Past Weeks' High & Low Weather Summary

 TemperatureHumidityPressure
High95 °F (Jul 19, 1:00 PM)94% (Jul 17, 6:00 AM)29.92 "Hg (Jul 17, 6:00 AM)
Low77 °F (Jul 17, 7:00 AM)47% (Jul 19, 2:00 PM)29.45 "Hg (Jul 16, 5:00 PM)
Average85 °F81%29.67 "Hg
* Reported Jul 14 1:00 AM — Jul 29 1:00 AM, Shenzhen, Weather by CustomWeather, © 2015

Note: Actual official high and low records may vary slightly from our data, if they occured in-between our weather recording intervals... More about our weather records

Advertising

Shenzhen weather history for previous 24 hours

 ConditionsComfort  
Time TempWeatherWind HumidityBarometerVisibility
1:00 AM
Wed, Jul 29
82 °FPassing clouds.8 mph79%29.89 "HgN/A
12:00 AM82 °FPassing clouds.8 mph79%29.92 "HgN/A
11:00 PM
Tue, Jul 28
84 °FPassing clouds.10 mph74%29.92 "HgN/A
10:00 PM84 °FPassing clouds.10 mph79%29.92 "HgN/A
9:00 PM84 °FPassing clouds.10 mph74%29.89 "HgN/A
8:00 PM84 °FPassing clouds.13 mph79%29.89 "HgN/A
7:00 PM84 °FPassing clouds.15 mph74%29.86 "HgN/A
6:00 PM84 °FPassing clouds.15 mph70%29.86 "HgN/A
5:00 PM86 °FPassing clouds.17 mph70%29.83 "HgN/A
4:00 PM88 °FPassing clouds.15 mph66%29.83 "HgN/A
3:00 PM88 °FPassing clouds.15 mph70%29.83 "HgN/A
2:00 PM88 °FPassing clouds.13 mph70%29.86 "HgN/A
1:00 PM88 °FPassing clouds.10 mph70%29.89 "HgN/A
12:00 PM88 °FPassing clouds.8 mph70%29.89 "HgN/A
11:00 AM86 °FPassing clouds.8 mph79%29.89 "HgN/A
10:00 AM86 °FPassing clouds.6 mph75%29.89 "HgN/A
9:00 AM84 °FPassing clouds.3 mph74%29.89 "HgN/A
8:00 AM84 °FScattered clouds.3 mph74%29.89 "HgN/A
7:00 AM82 °FScattered clouds.6 mph79%29.89 "HgN/A
6:00 AM82 °FScattered clouds.10 mph74%29.86 "HgN/A
5:00 AM82 °FPassing clouds.10 mph79%29.86 "HgN/A
4:00 AM82 °FPassing clouds.10 mph79%29.86 "HgN/A
3:00 AM81 °FPassing clouds.8 mph84%29.86 "HgN/A
2:00 AM81 °FClear.8 mph84%29.86 "Hg10 mi
Weather by CustomWeather, © 2015

See weather overviewHow to use our weather pages